Location: Marizy-Sainte-Geneviève
(49.1824°N, 3.2033°E)
Time: 23:16:01
(UTC+00:00)

Daily predictions for brighter satellites

Satellite Brightness Start Highest point End
(mag) Time Altitude Azimuth Time Altitude Azimuth Time Altitude Azimuth
Cosmos 1697 Rocket 3.1 17:42:11 10° SW 17:47:47 69° WNW 17:53:26 10° NNE
SL-08 R/B 4.3 17:43:31 10° N 17:48:21 57° WNW 17:53:11 10° SSW
Okean 2 3.6 17:45:05 10° NNW 17:49:15 79° W 17:53:23 10° S
SL-14 R/B 3.3 17:49:26 10° N 17:53:23 60° ENE 17:57:20 10° SSE
MOS 1-B 4.5 17:49:02 10° SE 17:54:43 59° ENE 18:00:26 10° N
Cosmos 1733 3.1 17:51:34 10° S 17:55:16 68° E 17:59:00 10° NNE
Cosmos 2360 Rocket 3.9 17:55:01 10° E 17:55:43 10° E 17:56:27 10° E
Cosmos 1809 Rocket 4.5 17:52:46 10° S 17:58:41 58° E 18:04:40 10° NNE
MINOTAUR 4 R/B 3.9 17:55:54 10° NNE 17:59:25 85° ESE 18:02:52 10° SSW
Cosmos 540 Rocket 4.5 17:56:07 10° NNW 18:01:04 51° WSW 18:05:59 10° S
Cosmos 1766 3.8 17:58:05 10° SSE 18:01:41 36° E 18:05:19 10° NNE
Cosmos 1674 Rocket 3.6 17:58:13 10° N 18:02:37 63° ENE 18:07:00 10° SSE
Meteor 2-10 4.2 17:57:39 10° S 18:03:12 63° E 18:08:35 10° NNE
ATLAS 2AS CENTAUR R/B 4.4 17:59:51 10° WNW 18:06:04 27° N 18:12:02 10° NE
YAOGAN 1 2.8 18:02:39 10° SE 18:06:49 50° ENE 18:11:01 10° N
Cosmos 968 Rocket 4.2 18:03:39 10° SSE 18:08:13 31° E 18:12:47 10° NE
Okean O Rocket 1.9 18:06:31 10° SE 18:10:41 46° ENE 18:14:54 10° N
Cosmos 2084 4.2 18:08:37 10° WSW 18:12:17 45° NW 18:15:59 10° NE
IRIDIUM 106 4.5 18:07:19 10° SSE 18:12:19 50° E 18:17:22 10° NNE
Lacrosse 4 Rocket 3.0 18:10:46 10° SE 18:12:57 14° ESE 18:13:56 13° E
SKYMED 2 3.7 18:09:23 10° NNE 18:13:45 83° WNW 18:18:06 10° SSW
Meteor 2-5 Rocket 4.1 18:09:37 10° N 18:14:49 40° ENE 18:20:00 10° SE
Nadezhda 4 Rocket 4.1 18:09:31 10° SSE 18:15:38 54° E 18:21:45 10° NNE
Cosmos 2285 Rocket 4.0 18:14:54 10° NNW 18:21:17 74° ENE 18:27:39 10° SSE
PSLV R/B 4.1 18:19:20 10° S 18:22:58 63° WSW 18:26:38 10° NNW
Cosmos 1726 2.0 18:20:08 10° S 18:23:46 83° E 18:27:27 10° NNE
USA 186 3.3 18:22:42 18° E 18:23:48 20° ENE 18:26:22 10° NNE
Cosmos 2322 Rocket 3.1 18:19:21 10° SSE 18:24:02 27° ESE 18:28:45 10° NE
Cosmos 1470 3.5 18:25:10 10° SSE 18:28:31 29° E 18:31:53 10° NNE
Cosmos 1378 Rocket 3.8 18:24:48 10° NNW 18:29:10 72° W 18:33:29 10° S
CZ-4B R/B 3.2 18:23:47 10° SSE 18:29:11 89° WSW 18:34:45 10° NNW
Cosmos 1980 Rocket 2.7 18:24:18 10° SW 18:29:53 64° WNW 18:35:29 10° NNE
Cosmos 1975 Rocket 3.8 18:26:20 10° N 18:30:17 31° ENE 18:33:08 16° SE
ARGOS Delta rocket 3.9 18:25:45 10° NNE 18:31:04 81° ESE 18:36:03 10° S
Cosmos 2292 Rocket 3.7 18:33:44 10° S 18:38:39 51° E 18:42:26 10° NNE
Cosmos 1733 Rocket 4.4 18:38:37 10° SSW 18:42:51 42° WNW 18:47:07 10° N
USA 215 3.4 18:37:40 10° NE 18:44:12 74° NNW 18:50:42 10° WSW
COBE Rocket 4.4 18:42:41 10° S 18:47:27 61° W 18:52:10 10° NNW
Cosmos 1844 Rocket 2.9 18:43:57 10° NNW 18:49:31 53° NE 18:52:59 23° ESE
Cosmos 2278 3.9 18:47:35 10° SW 18:53:16 74° WNW 18:58:59 10° NNE
SL-16 R/B 2.2 18:48:29 10° S 18:54:03 61° ESE 18:59:39 10° NE
Cosmos 1570 Rocket 4.1 18:49:34 10° NNW 18:54:51 77° WSW 19:00:04 10° SSE
Landsat 5 4.0 18:51:18 10° NNE 18:55:33 40° E 18:59:43 10° SSE
Cosmos 1092 Rocket 4.0 18:50:55 10° S 18:57:07 63° E 19:03:17 10° NNE
DMSP B5D1-3 4.5 18:55:49 10° NNE 19:00:58 89° E 19:06:05 10° SSW
Resurs 01 Rocket 3.0 19:01:19 22° ENE 19:01:19 22° ENE 19:04:28 10° NNE
SJ-6B 2.7 19:02:07 39° SE 19:03:12 55° ENE 19:06:57 10° N
Cosmos 2278 Rocket 3.9 19:00:36 10° N 19:04:08 16° NE 19:05:41 15° NE
Cosmos 1437 Rocket 2.8 19:02:25 10° SSW 19:06:09 74° WNW 19:09:54 10° N
H-2A R/B 3.7 19:07:11 24° NE 19:07:11 24° NE 19:09:39 10° N
Gbstr 26 Del rocket 4.5 18:59:06 10° WSW 19:06:48 87° NNW 19:12:39 21° ENE
Cosmos 2263 Rocket 4.0 19:03:28 10° NW 19:08:22 31° WSW 19:13:15 10° SSW
Meteor 1-24 Rocket 3.5 19:04:56 10° NNW 19:10:16 88° WSW 19:15:40 10° S
Resurs 1-3 3.8 19:11:26 42° ESE 19:12:21 50° ENE 19:16:37 10° N
SL-4 R/B 3.7 19:11:35 10° W 19:15:34 32° SW 19:17:52 20° S
MetOp-A 4.3 19:17:19 31° NE 19:17:19 31° NE 19:20:12 10° N
Cosmos 2084 Rocket 3.5 19:14:58 10° NW 19:18:47 63° SW 19:19:51 43° S
USA 267 4.4 19:14:42 10° SSE 19:20:41 37° SW 19:26:42 10° WNW
Okean-O 2.5 19:20:30 40° SSE 19:22:01 77° ENE 19:26:28 10° NNW
CZ-4 R/B 2.9 19:19:32 10° SSW 19:23:27 38° W 19:27:22 10° NNW
Cosmos 1486 Rocket 4.1 19:18:21 10° S 19:23:31 53° ESE 19:28:43 10° NNE
OBJECT-B 2.0 19:24:56 30° NW 19:24:56 30° NW 19:26:30 10° NNW
Cosmos 1844 3.5 19:18:30 10° NNW 19:24:06 77° ENE 19:26:12 40° SE
IGS 5A 3.3 19:24:37 44° SSE 19:25:55 89° SW 19:30:05 10° NNW
DNEPR-1 R/B 3.9 19:22:55 10° SSW 19:27:33 63° ESE 19:30:36 26° NE
Meteor 1-22 Rocket 4.3 19:23:08 10° SSW 19:28:34 76° WNW 19:34:16 10° N
S3M 4.3 19:23:25 10° N 19:29:21 43° ENE 19:30:10 41° E
Cosmos 773 Rocket 4.3 19:25:26 10° NNW 19:30:34 46° ENE 19:31:00 45° ENE
Cosmos 1300 Rocket 3.3 19:30:14 59° SSE 19:30:56 73° E 19:35:18 10° NNE
CSL-04 Debris 4.3 19:28:02 17° S 19:32:12 75° WSW 19:37:38 10° NNW
Cosmos 2360 Rocket 2.1 19:33:00 10° SSW 19:38:35 64° ESE 19:44:10 10° NNE
USA 81 4.3 19:33:37 10° N 19:38:52 68° W 19:43:22 14° S
Cosmos 1782 Rocket 4.2 19:35:07 10° SSW 19:39:22 55° WNW 19:43:41 10° N
Cosmos 1025 Rocket 3.7 19:38:44 10° NNW 19:42:57 54° W 19:44:51 30° SSW
Okean O Rocket 4.0 19:43:53 10° SW 19:47:15 22° W 19:50:39 10° NW
Cosmos 1417 Rocket 4.3 19:43:46 10° N 19:49:54 71° E 19:51:03 57° SE
Lacrosse 4 Rocket 1.8 19:46:53 10° SW 19:50:17 58° WSW 19:50:17 58° WSW
Cosmos 2026 Rocket 4.4 19:46:51 10° SSW 19:52:50 61° WNW 19:58:51 10° N
USA 186 3.7 19:55:51 29° W 19:55:57 29° W 19:58:55 10° NNW
CSL-04 Rocket 4.3 19:55:05 23° SSW 19:58:13 52° W 20:03:32 10° NNW
ATLAS 2AS CENTAUR R/B 4.0 19:52:58 10° NW 19:59:18 30° NNE 20:01:35 25° NE
MOS 1 4.1 20:01:33 75° E 20:01:46 76° ENE 20:07:27 10° NNW
Cosmos 1553 Rocket 4.2 19:57:20 10° NNW 20:03:41 73° W 20:06:33 35° S
Landsat 7 4.2 20:04:06 53° SW 20:04:41 58° W 20:09:22 10° NNW
deb Chang Zheng 4 4.3 20:05:56 48° NW 20:05:56 48° NW 20:09:03 10° NNW
SPOT 1/Viking Rocket 3.6 20:07:54 72° N 20:07:54 72° N 20:12:34 10° NNW
Cosmos 2322 Rocket 2.7 20:02:07 10° SW 20:07:44 58° WNW 20:13:23 10° NNE
NOSS 3-4 (A) 3.8 20:04:23 10° NW 20:11:08 66° NE 20:12:04 60° E
NOSS 3-4 (C) 3.8 20:04:29 10° NW 20:11:14 65° NE 20:12:10 60° E
Ariane Rocket 3.8 20:16:26 44° NNE 20:16:26 44° NNE 20:20:01 10° N
NOSS 3-3 (A) 4.1 20:15:46 10° SW 20:30:26 - NE 20:20:03 56° SW
NOSS 3-3 (C) 4.2 20:15:52 10° SW 20:30:32 - NE 20:19:58 52° SW
Aureole 1 Rocket 4.0 20:18:20 10° SSW 20:25:42 85° WNW 20:31:28 10° NNE
USA 215 4.0 20:24:15 32° NE 20:26:47 47° N 20:32:58 10° WNW
USA 281 3.8 20:27:40 42° NE 20:27:40 42° NE 20:33:17 10° NNW
Cosmos 1844 Rocket 4.2 20:28:17 10° NW 20:33:08 30° WSW 20:34:40 26° SW
Resurs 01 Rocket 3.2 20:38:52 33° NW 20:38:52 33° NW 20:41:35 10° NNW
SL-16 R/B 4.0 20:33:38 10° WSW 20:38:33 30° NW 20:43:31 10° NNE
Cosmos 2315 Rocket 4.2 20:32:35 10° N 20:37:56 63° N 20:37:56 63° N
Terra 4.0 20:42:43 18° N 20:42:43 18° N 20:44:03 10° N
Cosmos 1943 Rocket 4.0 20:36:08 10° N 20:38:59 21° NNE 20:38:59 21° NNE
Cosmos 2278 Rocket 3.2 20:43:49 10° NNW 20:47:32 39° N 20:47:32 39° N
Gbstr 26 Del rocket 4.5 20:46:46 10° W 20:54:47 75° N 20:55:06 74° NNE
Cosmos 2369 Rocket 4.4 20:56:16 10° N 20:58:48 16° NNE 20:58:48 16° NNE
Cosmos 2333 Rocket 4.3 21:18:31 19° NNE 21:18:31 19° NNE 21:20:10 10° NNE
Cosmos 2360 Rocket 4.0 21:18:12 10° WSW 21:23:01 28° NW 21:27:52 10° NNE
ATLAS 2AS CENTAUR R/B 3.7 21:44:22 10° NW 21:49:00 41° NNW 21:49:00 41° NNW
